Stündliche Wetter Cedar Falls

Heute, 25 Oktober, Sonntag

Zeit Temperatur Niederschläge Wind Luftdruck Luftfeuchtigkeit
00:00 -4°C° 0 mm 4 m/S 743 mmHg 69%
01:00 -4°C° 0 mm 4 m/S 743 mmHg 69%
02:00 -4°C° 0 mm 3 m/S 743 mmHg 68%
03:00 -4°C° 0 mm 3 m/S 743 mmHg 68%
04:00 -4°C° 0 mm 4 m/S 743 mmHg 70%
05:00 -4°C° 0 mm 4 m/S 743 mmHg 71%
06:00 -4°C° 0 mm 4 m/S 743 mmHg 73%
07:00 -4°C° 0.3 mm 4 m/S 744 mmHg 77%
08:00 -4°C° 0.3 mm 4 m/S 744 mmHg 81%
09:00 -4°C° 0.3 mm 4 m/S 744 mmHg 86%
10:00 -2°C° 0.4 mm 3 m/S 744 mmHg 87%
11:00 -2°C° 0.4 mm 3 m/S 744 mmHg 88%
12:00 -1°C° 0.4 mm 3 m/S 743 mmHg 90%
13:00 -1°C° 0.3 mm 3 m/S 743 mmHg 91%
14:00 -2°C° 0.3 mm 4 m/S 743 mmHg 92%
15:00 -2°C° 0.3 mm 4 m/S 743 mmHg 93%
16:00 -3°C° 0.2 mm 4 m/S 743 mmHg 94%
17:00 -3°C° 0.2 mm 4 m/S 743 mmHg 94%
18:00 -4°C° 0.2 mm 3 m/S 743 mmHg 94%
19:00 -4°C° 0 mm 4 m/S 744 mmHg 93%
20:00 -4°C° 0 mm 4 m/S 744 mmHg 92%
21:00 -4°C° 0 mm 4 m/S 745 mmHg 91%
22:00 -5°C° 0 mm 4 m/S 745 mmHg 91%
23:00 -7°C° 0 mm 4 m/S 745 mmHg 91%

Morgen, 26 Oktober, Montag

Zeit Temperatur Niederschläge Wind Luftdruck Luftfeuchtigkeit
00:00 -7°C° 0 mm 4 m/S 745 mmHg 91%
01:00 -8°C° 0 mm 4 m/S 745 mmHg 90%
02:00 -9°C° 0 mm 4 m/S 745 mmHg 89%
03:00 -9°C° 0 mm 4 m/S 745 mmHg 88%
04:00 -10°C° 0 mm 4 m/S 745 mmHg 88%
05:00 -10°C° 0 mm 4 m/S 746 mmHg 87%
06:00 -11°C° 0 mm 4 m/S 746 mmHg 86%
07:00 -10°C° 0 mm 4 m/S 746 mmHg 84%
08:00 -10°C° 0 mm 4 m/S 747 mmHg 83%
09:00 -10°C° 0 mm 4 m/S 747 mmHg 81%
10:00 -8°C° 0 mm 4 m/S 747 mmHg 78%
11:00 -7°C° 0 mm 4 m/S 747 mmHg 74%
12:00 -5°C° 0 mm 4 m/S 747 mmHg 70%
13:00 -5°C° 0 mm 4 m/S 746 mmHg 70%
14:00 -5°C° 0 mm 4 m/S 746 mmHg 70%
15:00 -4°C° 0 mm 4 m/S 746 mmHg 69%
16:00 -6°C° 0 mm 3 m/S 746 mmHg 75%
17:00 -7°C° 0 mm 3 m/S 746 mmHg 82%
18:00 -7°C° 0 mm 2 m/S 746 mmHg 88%
19:00 -7°C° 0 mm 2 m/S 746 mmHg 89%
20:00 -8°C° 0 mm 2 m/S 746 mmHg 90%
21:00 -8°C° 0 mm 2 m/S 746 mmHg 91%
22:00 -8°C° 0 mm 1 m/S 746 mmHg 91%
23:00 -8°C° 0 mm 1 m/S 746 mmHg 90%

übermorgen, 27 Oktober, Dienstag

Zeit Temperatur Niederschläge Wind Luftdruck Luftfeuchtigkeit
00:00 -8°C° 0 mm 1 m/S 745 mmHg 90%
01:00 -8°C° 0 mm 1 m/S 745 mmHg 90%
02:00 -8°C° 0 mm 0 m/S 745 mmHg 89%
03:00 -9°C° 0 mm 0 m/S 745 mmHg 89%
04:00 -9°C° 0 mm 0 m/S 745 mmHg 88%
05:00 -9°C° 0 mm 0 m/S 745 mmHg 88%
06:00 -9°C° 0 mm 0 m/S 745 mmHg 88%
07:00 -8°C° 0 mm 1 m/S 745 mmHg 83%
08:00 -6°C° 0 mm 1 m/S 745 mmHg 77%
09:00 -6°C° 0 mm 2 m/S 745 mmHg 72%
10:00 -5°C° 0 mm 2 m/S 744 mmHg 67%
11:00 -4°C° 0 mm 3 m/S 744 mmHg 62%
12:00 -2°C° 0 mm 3 m/S 743 mmHg 58%
13:00 -1°C° 0 mm 3 m/S 742 mmHg 57%
14:00 -2°C° 0 mm 4 m/S 742 mmHg 55%
15:00 -1°C° 0 mm 4 m/S 741 mmHg 54%
16:00 -2°C° 0 mm 3 m/S 741 mmHg 61%
17:00 -4°C° 0 mm 3 m/S 741 mmHg 68%
18:00 -6°C° 0 mm 3 m/S 740 mmHg 74%
19:00 -6°C° 0 mm 3 m/S 740 mmHg 77%
20:00 -7°C° 0 mm 4 m/S 740 mmHg 80%
21:00 -7°C° 0 mm 4 m/S 740 mmHg 82%
22:00 -7°C° 0 mm 4 m/S 740 mmHg 82%
23:00 -7°C° 0 mm 4 m/S 739 mmHg 82%

28 Oktober, Mittwoch

Zeit Temperatur Niederschläge Wind Luftdruck Luftfeuchtigkeit
00:00 -7°C° 0 mm 5 m/S 739 mmHg 81%
01:00 -7°C° 0 mm 4 m/S 738 mmHg 83%
02:00 -7°C° 0 mm 4 m/S 737 mmHg 84%
03:00 -7°C° 0 mm 4 m/S 737 mmHg 85%
04:00 -7°C° 0 mm 4 m/S 736 mmHg 84%
05:00 -6°C° 0 mm 5 m/S 736 mmHg 82%
06:00 -6°C° 0 mm 5 m/S 736 mmHg 81%
07:00 -5°C° 0 mm 5 m/S 735 mmHg 79%
08:00 -4°C° 0 mm 5 m/S 735 mmHg 76%
09:00 -4°C° 0 mm 5 m/S 735 mmHg 74%
10:00 -1°C° 0 mm 5 m/S 735 mmHg 70%
11:00 +1°C° 0 mm 5 m/S 735 mmHg 67%
12:00 +3°C° 0 mm 5 m/S 734 mmHg 63%
13:00 +5°C° 0 mm 5 m/S 734 mmHg 64%
14:00 +6°C° 0 mm 5 m/S 734 mmHg 64%
15:00 +7°C° 0 mm 5 m/S 734 mmHg 65%
16:00 +5°C° 0 mm 5 m/S 735 mmHg 73%
17:00 +3°C° 0 mm 4 m/S 735 mmHg 82%
18:00 +1°C° 0 mm 3 m/S 736 mmHg 90%
19:00 +1°C° 0 mm 3 m/S 736 mmHg 91%
20:00 0°C° 0 mm 3 m/S 737 mmHg 92%
21:00 0°C° 0 mm 3 m/S 737 mmHg 93%
22:00 0°C° 0 mm 3 m/S 738 mmHg 92%
23:00 -1°C° 0 mm 3 m/S 738 mmHg 92%

29 Oktober, Donnerstag

Zeit Temperatur Niederschläge Wind Luftdruck Luftfeuchtigkeit
00:00 -1°C° 0 mm 3 m/S 739 mmHg 91%
01:00 -1°C° 0 mm 3 m/S 739 mmHg 91%
02:00 -1°C° 0 mm 3 m/S 740 mmHg 90%
03:00 -2°C° 0 mm 3 m/S 740 mmHg 90%
04:00 -2°C° 0 mm 3 m/S 741 mmHg 91%
05:00 -2°C° 0 mm 3 m/S 741 mmHg 91%
06:00 -2°C° 0 mm 3 m/S 742 mmHg 92%
07:00 -1°C° 0 mm 3 m/S 743 mmHg 88%
08:00 0°C° 0 mm 3 m/S 743 mmHg 85%
09:00 0°C° 0 mm 4 m/S 744 mmHg 81%
10:00 +1°C° 0 mm 4 m/S 744 mmHg 76%
11:00 +4°C° 0 mm 3 m/S 745 mmHg 71%
12:00 +5°C° 0 mm 3 m/S 745 mmHg 66%
13:00 +5°C° 0 mm 3 m/S 745 mmHg 65%
14:00 +5°C° 0 mm 3 m/S 745 mmHg 64%
15:00 +5°C° 0 mm 3 m/S 745 mmHg 62%
16:00 +5°C° 0 mm 2 m/S 746 mmHg 68%
17:00 +3°C° 0 mm 2 m/S 746 mmHg 75%
18:00 +2°C° 0 mm 2 m/S 747 mmHg 81%
19:00 +1°C° 0 mm 2 m/S 747 mmHg 83%
20:00 -1°C° 0 mm 2 m/S 747 mmHg 86%
21:00 -2°C° 0 mm 2 m/S 748 mmHg 88%
22:00 -2°C° 0 mm 2 m/S 748 mmHg 89%
23:00 -2°C° 0 mm 2 m/S 748 mmHg 89%

30 Oktober, Freitag

Zeit Temperatur Niederschläge Wind Luftdruck Luftfeuchtigkeit
00:00 -1°C° 0 mm 1 m/S 748 mmHg 90%
01:00 -1°C° 0 mm 1 m/S 748 mmHg 90%
02:00 -1°C° 0 mm 1 m/S 748 mmHg 90%
03:00 -1°C° 0 mm 1 m/S 748 mmHg 90%
04:00 -1°C° 0 mm 1 m/S 748 mmHg 90%
05:00 -3°C° 0 mm 2 m/S 748 mmHg 90%
06:00 -3°C° 0 mm 2 m/S 748 mmHg 90%
07:00 -2°C° 0 mm 2 m/S 748 mmHg 84%
08:00 0°C° 0 mm 3 m/S 748 mmHg 78%
09:00 +1°C° 0 mm 3 m/S 748 mmHg 71%
10:00 +3°C° 0 mm 4 m/S 748 mmHg 66%
11:00 +5°C° 0 mm 4 m/S 747 mmHg 62%
12:00 +6°C° 0 mm 5 m/S 747 mmHg 57%
13:00 +7°C° 0 mm 5 m/S 746 mmHg 56%
14:00 +7°C° 0 mm 5 m/S 745 mmHg 55%
15:00 +8°C° 0 mm 6 m/S 744 mmHg 54%
16:00 +7°C° 0 mm 5 m/S 744 mmHg 59%
17:00 +5°C° 0 mm 5 m/S 744 mmHg 65%
18:00 +4°C° 0 mm 4 m/S 743 mmHg 70%
19:00 +4°C° 0 mm 4 m/S 743 mmHg 70%
20:00 +3°C° 0 mm 5 m/S 743 mmHg 70%
21:00 +3°C° 0 mm 5 m/S 743 mmHg 69%
22:00 +2°C° 0 mm 5 m/S 743 mmHg 71%
23:00 +2°C° 0 mm 5 m/S 743 mmHg 72%
Mehr zeigen